| time (UTC) | temp F | wind direction | speed knots | gust knots | rain 1hr in | rain 24hr in | rain mn in | humidity % | barometer mb |
| 20260904154006 | 67 | 329 | 4.3 | 7.8 | 0.00 | 0.00 | 0.00 | 37 | 1001.1 |
| 20260904153006 | 65 | 320 | 4.3 | 10.4 | 0.00 | 0.00 | 0.00 | 39 | 1001.2 |
| 20260904151505 | 64 | 351 | 2.6 | 12.2 | 0.00 | 0.00 | 0.00 | 39 | 1001.0 |
| 20260904151006 | 64 | 358 | 4.3 | 13.0 | 0.00 | 0.00 | 0.00 | 40 | 1001.2 |
| 20260904150006 | 67 | 306 | 1.7 | 10.4 | 0.00 | 0.00 | 0.00 | 35 | 1001.1 |
| 20260904145505 | 66 | 157 | 6.1 | 12.2 | 0.00 | 0.00 | 0.00 | 36 | 1000.9 |
| 20260904145006 | 65 | 150 | 7.8 | 12.2 | 0.00 | 0.00 | 0.00 | 37 | 1000.9 |
| 20260904144505 | 64 | 166 | 7.8 | 11.3 | 0.00 | 0.00 | 0.00 | 38 | 1001.1 |
| 20260904144006 | 63 | 167 | 6.1 | 10.4 | 0.00 | 0.00 | 0.00 | 39 | 1001.2 |
| 20260904143006 | 62 | 185 | 3.5 | 6.1 | 0.00 | 0.00 | 0.00 | 41 | 1001.4 |
| 20260904142505 | 62 | 185 | 2.6 | 6.1 | 0.00 | 0.00 | 0.00 | 41 | 1001.3 |
| 20260904142006 | 61 | 183 | 4.3 | 6.1 | 0.00 | 0.00 | 0.00 | 42 | 1001.3 |
| 20260904141505 | 61 | 186 | 3.5 | 7.0 | 0.00 | 0.00 | 0.00 | 43 | 1001.4 |
| 20260904141006 | 60 | 172 | 5.2 | 7.0 | 0.00 | 0.00 | 0.00 | 44 | 1001.3 |
| 20260904140005 | 58 | 189 | 1.7 | 2.6 | 0.00 | 0.00 | 0.00 | 46 | 1001.3 |
| 20260904135506 | 57 | 174 | 0.0 | 2.6 | 0.00 | 0.00 | 0.00 | 48 | 1001.3 |
| 20260904135005 | 57 | 174 | 0.0 | 2.6 | 0.00 | 0.00 | 0.00 | 49 | 1001.2 |
| 20260904134505 | 57 | 174 | 0.9 | 6.1 | 0.00 | 0.00 | 0.00 | 48 | 1001.0 |
| 20260904134006 | 57 | 174 | 0.9 | 6.1 | 0.00 | 0.00 | 0.00 | 49 | 1001.0 |
| 20260904133505 | 56 | 191 | 1.7 | 6.1 | 0.00 | 0.00 | 0.00 | 49 | 1001.0 |
| 20260904133006 | 56 | 197 | 2.6 | 5.2 | 0.00 | 0.00 | 0.00 | 51 | 1001.0 |
| 20260904132505 | 55 | 197 | 2.6 | 5.2 | 0.00 | 0.00 | 0.00 | 50 | 1001.0 |
| 20260904132006 | 55 | 197 | 4.3 | 6.1 | 0.00 | 0.00 | 0.00 | 50 | 1001.0 |
| 20260904131505 | 54 | 198 | 4.3 | 6.1 | 0.00 | 0.00 | 0.00 | 50 | 1000.9 |
| 20260904131005 | 54 | 201 | 1.7 | 5.2 | 0.00 | 0.00 | 0.00 | 51 | 1000.7 |
| 20260904130006 | 54 | 235 | 0.9 | 4.3 | 0.00 | 0.00 | 0.00 | 50 | 1000.7 |
| 20260904125505 | 54 | 235 | 2.6 | 4.3 | 0.00 | 0.00 | 0.00 | 50 | 1000.5 |
| 20260904125006 | 55 | 242 | 1.7 | 6.1 | 0.00 | 0.00 | 0.00 | 50 | 1000.4 |
| 20260904124005 | 55 | 245 | 5.2 | 7.0 | 0.00 | 0.00 | 0.00 | 49 | 1000.6 |
| 20260904123506 | 55 | 223 | 2.6 | 4.3 | 0.00 | 0.00 | 0.00 | 47 | 1000.4 |
| 20260904123006 | 56 | 142 | 0.0 | 0.0 | 0.00 | 0.00 | 0.00 | 46 | 1000.3 |
| 20260904122506 | 57 | 137 | 0.0 | 0.0 | 0.00 | 0.00 | 0.00 | 46 | 1000.3 |
| 20260904122006 | 57 | 95 | 0.0 | 0.0 | 0.00 | 0.00 | 0.00 | 44 | 1000.3 |
| 20260904121505 | 57 | 95 | 0.0 | 0.0 | 0.00 | 0.00 | 0.00 | 44 | 1000.4 |
| 20260904121006 | 57 | 94 | 0.0 | 0.0 | 0.00 | 0.00 | 0.00 | 44 | 1000.4 |
| 20260904120005 | 57 | 77 | 0.0 | 0.0 | 0.00 | 0.00 | 0.00 | 43 | 1000.3 |
| 20260904115505 | 58 | 77 | 0.0 | 0.0 | 0.00 | 0.00 | 0.00 | 42 | 1000.4 |
| 20260904115005 | 58 | 76 | 0.0 | 0.0 | 0.00 | 0.00 | 0.00 | 41 | 1000.4 |
| 20260904114505 | 59 | 76 | 0.0 | 0.0 | 0.00 | 0.00 | 0.00 | 40 | 1000.5 |
| 20260904113506 | 60 | 75 | 0.0 | 0.0 | 0.00 | 0.00 | 0.00 | 39 | 1000.2 |
| 20260904112505 | 60 | 75 | 0.0 | 0.0 | 0.00 | 0.00 | 0.00 | 39 | 1000.1 |
| 20260904111505 | 60 | 75 | 0.0 | 4.3 | 0.00 | 0.00 | 0.00 | 39 | 1000.1 |
| 20260904111005 | 61 | 76 | 0.9 | 4.3 | 0.00 | 0.00 | 0.00 | 39 | 1000.1 |
| 20260904110005 | 61 | 82 | 2.6 | 4.3 | 0.00 | 0.00 | 0.00 | 38 | 1000.1 |
| 20260904105505 | 61 | 80 | 2.6 | 5.2 | 0.00 | 0.00 | 0.00 | 38 | 1000.1 |
| 20260904105005 | 61 | 75 | 2.6 | 5.2 | 0.00 | 0.00 | 0.00 | 38 | 1000.2 |
| 20260904104505 | 61 | 57 | 3.5 | 5.2 | 0.00 | 0.00 | 0.00 | 39 | 1000.2 |
| 20260904104006 | 60 | 63 | 1.7 | 4.3 | 0.00 | 0.00 | 0.00 | 40 | 1000.2 |
| 20260904103005 | 59 | 67 | 1.7 | 4.3 | 0.00 | 0.00 | 0.00 | 41 | 1000.3 |
| 20260904102505 | 58 | 55 | 2.6 | 4.3 | 0.00 | 0.00 | 0.00 | 42 | 1000.3 |
| 20260904102005 | 59 | 39 | 2.6 | 4.3 | 0.00 | 0.00 | 0.00 | 42 | 1000.3 |
| 20260904101506 | 59 | 32 | 2.6 | 4.3 | 0.00 | 0.00 | 0.00 | 42 | 1000.4 |
| 20260904101005 | 59 | 44 | 2.6 | 4.3 | 0.00 | 0.00 | 0.00 | 41 | 1000.5 |
| 20260904100005 | 60 | 56 | 1.7 | 2.6 | 0.00 | 0.00 | 0.00 | 40 | 1000.4 |
| 20260904095005 | 61 | 58 | 1.7 | 4.3 | 0.00 | 0.00 | 0.00 | 39 | 1000.4 |
| 20260904094505 | 61 | 59 | 2.6 | 5.2 | 0.00 | 0.00 | 0.00 | 39 | 1000.4 |
| 20260904094005 | 61 | 54 | 4.3 | 6.1 | 0.00 | 0.00 | 0.00 | 38 | 1000.4 |
| 20260904093505 | 62 | 57 | 2.6 | 7.0 | 0.00 | 0.00 | 0.00 | 38 | 1000.4 |
| 20260904093006 | 62 | 53 | 4.3 | 7.8 | 0.00 | 0.00 | 0.00 | 38 | 1000.4 |
| 20260904091505 | 62 | 71 | 1.7 | 7.0 | 0.00 | 0.00 | 0.00 | 38 | 1000.7 |
| 20260904091005 | 61 | 63 | 2.6 | 7.0 | 0.00 | 0.00 | 0.00 | 38 | 1000.7 |
| 20260904090005 | 62 | 81 | 4.3 | 7.8 | 0.00 | 0.00 | 0.00 | 38 | 1000.7 |
| 20260904085505 | 62 | 69 | 5.2 | 7.8 | 0.00 | 0.00 | 0.00 | 38 | 1000.6 |
| 20260904085005 | 61 | 69 | 2.6 | 7.8 | 0.00 | 0.00 | 0.00 | 39 | 1000.8 |
| 20260904084505 | 61 | 79 | 3.5 | 5.2 | 0.00 | 0.00 | 0.00 | 40 | 1001.0 |
| 20260904084005 | 61 | 43 | 0.9 | 6.1 | 0.00 | 0.00 | 0.00 | 40 | 1001.1 |
| 20260904083506 | 61 | 41 | 4.3 | 6.1 | 0.00 | 0.00 | 0.00 | 39 | 1001.2 |
| 20260904082006 | 63 | 40 | 2.6 | 4.3 | 0.00 | 0.00 | 0.00 | 38 | 1001.4 |
| 20260904081505 | 64 | 30 | 2.6 | 4.3 | 0.00 | 0.00 | 0.00 | 37 | 1001.5 |
| 20260904081005 | 64 | 93 | 1.7 | 6.1 | 0.00 | 0.00 | 0.00 | 34 | 1001.5 |
| 20260904080005 | 64 | 108 | 2.6 | 5.2 | 0.00 | 0.00 | 0.00 | 34 | 1001.4 |
| 20260904075505 | 64 | 116 | 2.6 | 5.2 | 0.00 | 0.00 | 0.00 | 33 | 1001.5 |
| 20260904075005 | 64 | 116 | 3.5 | 6.1 | 0.00 | 0.00 | 0.00 | 33 | 1001.6 |
| 20260904074505 | 65 | 116 | 4.3 | 7.0 | 0.00 | 0.00 | 0.00 | 33 | 1001.6 |
| 20260904073506 | 65 | 117 | 6.1 | 7.8 | 0.00 | 0.00 | 0.00 | 32 | 1001.6 |
| 20260904073006 | 65 | 115 | 5.2 | 8.7 | 0.00 | 0.00 | 0.00 | 32 | 1001.5 |
| 20260904072006 | 66 | 115 | 7.0 | 8.7 | 0.00 | 0.00 | 0.00 | 32 | 1001.6 |
| 20260904071506 | 66 | 111 | 6.1 | 10.4 | 0.00 | 0.00 | 0.00 | 32 | 1001.7 |
| 20260904071006 | 66 | 109 | 7.8 | 10.4 | 0.00 | 0.00 | 0.00 | 32 | 1001.6 |
| 20260904070005 | 66 | 98 | 7.0 | 10.4 | 0.00 | 0.00 | 0.00 | 32 | 1001.7 |
| 20260904065505 | 66 | 103 | 7.8 | 11.3 | 0.00 | 0.00 | 0.00 | 32 | 1001.7 |
| 20260904065006 | 66 | 104 | 7.8 | 12.2 | 0.00 | 0.00 | 0.00 | 32 | 1001.7 |
| 20260904064505 | 66 | 97 | 8.7 | 13.0 | 0.00 | 0.00 | 0.00 | 32 | 1001.7 |
| 20260904064005 | 66 | 98 | 10.4 | 13.0 | 0.00 | 0.00 | 0.00 | 32 | 1001.7 |
| 20260904063506 | 66 | 101 | 10.4 | 13.0 | 0.00 | 0.00 | 0.00 | 32 | 1001.8 |
| 20260904063005 | 67 | 102 | 8.7 | 14.8 | 0.00 | 0.00 | 0.00 | 32 | 1001.6 |
| 20260904062505 | 67 | 111 | 11.3 | 14.8 | 0.00 | 0.00 | 0.00 | 32 | 1001.7 |
| 20260904062005 | 66 | 101 | 9.6 | 13.0 | 0.00 | 0.00 | 0.00 | 32 | 1001.6 |
| 20260904061505 | 66 | 100 | 8.7 | 11.3 | 0.00 | 0.00 | 0.00 | 32 | 1001.5 |
| 20260904061005 | 66 | 94 | 8.7 | 12.2 | 0.00 | 0.00 | 0.00 | 32 | 1001.7 |
| 20260904055005 | 65 | 100 | 5.2 | 6.1 | 0.00 | 0.00 | 0.00 | 35 | 1001.8 |
| 20260904054505 | 65 | 159 | 4.3 | 4.3 | 0.00 | 0.00 | 0.00 | 33 | 1001.9 |
| 20260904054005 | 65 | 160 | 1.7 | 6.1 | 0.00 | 0.00 | 0.00 | 34 | 1002.0 |
| 20260904053505 | 65 | 160 | 1.7 | 6.1 | 0.00 | 0.00 | 0.00 | 34 | 1002.1 |
| 20260904053006 | 66 | 159 | 3.5 | 6.1 | 0.00 | 0.00 | 0.00 | 34 | 1002.2 |
| 20260904052505 | 66 | 97 | 0.9 | 2.6 | 0.00 | 0.00 | 0.00 | 34 | 1002.1 |
| 20260904052006 | 66 | 97 | 2.6 | 5.2 | 0.00 | 0.00 | 0.00 | 33 | 1002.1 |
| 20260904051505 | 66 | 97 | 2.6 | 6.1 | 0.00 | 0.00 | 0.00 | 33 | 1002.1 |
| 20260904051005 | 67 | 108 | 2.6 | 8.7 | 0.00 | 0.00 | 0.00 | 32 | 1002.2 |
| 20260904045505 | 66 | 118 | 7.0 | 10.4 | 0.00 | 0.00 | 0.00 | 32 | 1002.3 |
| 20260904045005 | 67 | 120 | 7.0 | 10.4 | 0.00 | 0.00 | 0.00 | 32 | 1002.4 |
| 20260904044505 | 67 | 195 | 4.3 | 6.1 | 0.00 | 0.00 | 0.00 | 32 | 1002.2 |
| 20260904044005 | 67 | 211 | 2.6 | 5.2 | 0.00 | 0.00 | 0.00 | 31 | 1002.2 |
| 20260904043005 | 67 | 240 | 4.3 | 7.0 | 0.00 | 0.00 | 0.00 | 31 | 1002.2 |
| 20260904042005 | 67 | 192 | 4.3 | 5.2 | 0.00 | 0.00 | 0.00 | 32 | 1002.5 |
| 20260904041505 | 67 | 206 | 2.6 | 4.3 | 0.00 | 0.00 | 0.00 | 31 | 1002.4 |
| 20260904040006 | 68 | 224 | 2.6 | 4.3 | 0.00 | 0.00 | 0.00 | 30 | 1002.3 |
| 20260904035504 | 69 | 233 | 2.6 | 5.2 | 0.00 | 0.00 | 0.00 | 29 | 1002.3 |
| 20260904035006 | 69 | 235 | 4.3 | 5.2 | 0.00 | 0.00 | 0.00 | 28 | 1002.4 |
| 20260904033505 | 69 | 222 | 2.6 | 4.3 | 0.00 | 0.00 | 0.00 | 29 | 1002.7 |
| 20260904033006 | 69 | 216 | 2.6 | 4.3 | 0.00 | 0.00 | 0.00 | 29 | 1002.7 |
| 20260904032505 | 69 | 207 | 2.6 | 2.6 | 0.00 | 0.00 | 0.00 | 28 | 1002.7 |
| 20260904031505 | 69 | 200 | 1.7 | 5.2 | 0.00 | 0.00 | 0.00 | 28 | 1002.7 |
| 20260904031005 | 69 | 197 | 1.7 | 4.3 | 0.00 | 0.00 | 0.00 | 28 | 1002.7 |
| 20260904030005 | 69 | 197 | 1.7 | 2.6 | 0.00 | 0.00 | 0.00 | 28 | 1002.8 |
| 20260904025505 | 69 | 197 | 2.6 | 5.2 | 0.00 | 0.00 | 0.00 | 28 | 1002.8 |
| 20260904025005 | 69 | 195 | 3.5 | 5.2 | 0.00 | 0.00 | 0.00 | 28 | 1002.8 |
| 20260904024505 | 70 | 187 | 4.3 | 5.2 | 0.00 | 0.00 | 0.00 | 28 | 1002.8 |
| 20260904023005 | 71 | 197 | 4.3 | 6.1 | 0.00 | 0.00 | 0.00 | 27 | 1002.7 |
| 20260904022505 | 71 | 199 | 4.3 | 6.1 | 0.00 | 0.00 | 0.00 | 26 | 1002.6 |
| 20260904022005 | 71 | 207 | 1.7 | 2.6 | 0.00 | 0.00 | 0.00 | 26 | 1002.6 |
| 20260904021506 | 72 | 203 | 1.7 | 6.1 | 0.00 | 0.00 | 0.00 | 25 | 1002.6 |
| 20260904021005 | 72 | 198 | 2.6 | 6.1 | 0.00 | 0.00 | 0.00 | 25 | 1002.6 |
| 20260904020005 | 73 | 196 | 5.2 | 6.1 | 0.00 | 0.00 | 0.00 | 24 | 1002.5 |
| 20260904015505 | 73 | 226 | 2.6 | 5.2 | 0.00 | 0.00 | 0.00 | 24 | 1002.4 |
| 20260904015005 | 73 | 228 | 4.3 | 6.1 | 0.00 | 0.00 | 0.00 | 23 | 1002.3 |
| 20260904014505 | 73 | 197 | 3.5 | 7.8 | 0.00 | 0.00 | 0.00 | 24 | 1002.3 |
| 20260904014005 | 74 | 217 | 2.6 | 7.8 | 0.00 | 0.00 | 0.00 | 23 | 1002.3 |
| 20260904013505 | 74 | 202 | 3.5 | 10.4 | 0.00 | 0.00 | 0.00 | 23 | 1002.2 |
| 20260904012505 | 74 | 234 | 5.2 | 8.7 | 0.00 | 0.00 | 0.00 | 22 | 1002.1 |
| 20260904012005 | 74 | 233 | 6.1 | 12.2 | 0.00 | 0.00 | 0.00 | 22 | 1002.0 |
| 20260904011504 | 75 | 230 | 6.1 | 13.9 | 0.00 | 0.00 | 0.00 | 22 | 1001.9 |
| 20260904011005 | 75 | 236 | 6.1 | 13.9 | 0.00 | 0.00 | 0.00 | 22 | 1001.9 |
| 20260904005505 | 76 | 231 | 7.8 | 11.3 | 0.00 | 0.00 | 0.00 | 20 | 1001.8 |
| 20260904005005 | 76 | 226 | 7.8 | 11.3 | 0.00 | 0.00 | 0.00 | 20 | 1001.7 |
| 20260904004504 | 76 | 229 | 5.2 | 11.3 | 0.00 | 0.00 | 0.00 | 20 | 1001.7 |
| 20260904004005 | 76 | 230 | 7.8 | 11.3 | 0.00 | 0.00 | 0.00 | 20 | 1001.6 |
| 20260904003505 | 77 | 233 | 7.8 | 12.2 | 0.00 | 0.00 | 0.00 | 20 | 1001.5 |
| 20260904003005 | 78 | 225 | 7.0 | 12.2 | 0.00 | 0.00 | 0.00 | 20 | 1001.5 |
| 20260904002505 | 78 | 233 | 6.1 | 11.3 | 0.00 | 0.00 | 0.00 | 19 | 1001.5 |
| 20260904001005 | 77 | 225 | 7.0 | 13.9 | 0.00 | 0.00 | 0.00 | 20 | 1001.4 |
| 20260904000005 | 77 | 238 | 6.1 | 13.0 | 0.00 | 0.00 | 0.00 | 21 | 1001.4 |
| 20260903235505 | 77 | 241 | 8.7 | 13.0 | 0.00 | 0.00 | 0.00 | 21 | 1001.4 |
| 20260903235005 | 77 | 229 | 8.7 | 13.0 | 0.00 | 0.00 | 0.00 | 21 | 1001.4 |
| 20260903234505 | 77 | 236 | 8.7 | 13.0 | 0.00 | 0.00 | 0.00 | 20 | 1001.3 |
| 20260903234005 | 77 | 230 | 7.8 | 13.0 | 0.00 | 0.00 | 0.00 | 21 | 1001.3 |
| 20260903233505 | 78 | 231 | 8.7 | 17.4 | 0.00 | 0.00 | 0.00 | 21 | 1001.3 |
| 20260903233005 | 78 | 229 | 7.8 | 17.4 | 0.00 | 0.00 | 0.00 | 21 | 1001.2 |
| 20260903232505 | 77 | 197 | 8.7 | 13.0 | 0.00 | 0.00 | 0.00 | 21 | 1001.2 |
| 20260903232005 | 77 | 233 | 6.1 | 17.4 | 0.00 | 0.00 | 0.00 | 22 | 1001.2 |
| 20260903231505 | 77 | 208 | 6.1 | 17.4 | 0.00 | 0.00 | 0.00 | 21 | 1001.3 |
| 20260903231005 | 78 | 211 | 11.3 | 17.4 | 0.00 | 0.00 | 0.00 | 21 | 1001.2 |
| 20260903230005 | 77 | 205 | 8.7 | 14.8 | 0.00 | 0.00 | 0.00 | 21 | 1001.2 |
| 20260903225505 | 77 | 226 | 7.8 | 13.9 | 0.00 | 0.00 | 0.00 | 21 | 1001.2 |
| 20260903225005 | 78 | 233 | 8.7 | 13.9 | 0.00 | 0.00 | 0.00 | 21 | 1001.2 |
| 20260903224505 | 78 | 210 | 8.7 | 20.0 | 0.00 | 0.00 | 0.00 | 21 | 1001.3 |
| 20260903223505 | 78 | 237 | 7.8 | 14.8 | 0.00 | 0.00 | 0.00 | 21 | 1001.2 |
| 20260903223005 | 78 | 203 | 8.7 | 13.0 | 0.00 | 0.00 | 0.00 | 21 | 1001.3 |
| 20260903222504 | 78 | 213 | 6.1 | 13.0 | 0.00 | 0.00 | 0.00 | 22 | 1001.3 |
| 20260903222005 | 79 | 215 | 7.0 | 15.6 | 0.00 | 0.00 | 0.00 | 21 | 1001.5 |
| 20260903221505 | 79 | 194 | 7.8 | 18.2 | 0.00 | 0.00 | 0.00 | 20 | 1001.4 |
| 20260903221005 | 79 | 181 | 10.4 | 19.1 | 0.00 | 0.00 | 0.00 | 21 | 1001.3 |
| 20260903220004 | 79 | 195 | 10.4 | 19.1 | 0.00 | 0.00 | 0.00 | 20 | 1001.3 |
| 20260903214504 | 77 | 271 | 5.2 | 11.3 | 0.00 | 0.00 | 0.00 | 24 | 1001.4 |
| 20260903214005 | 76 | 330 | 1.7 | 10.4 | 0.00 | 0.00 | 0.00 | 25 | 1001.2 |
| 20260903213505 | 76 | 271 | 3.5 | 10.4 | 0.00 | 0.00 | 0.00 | 26 | 1001.4 |
| 20260903213005 | 75 | 245 | 1.7 | 10.4 | 0.00 | 0.00 | 0.00 | 26 | 1001.3 |
| 20260903211505 | 75 | 262 | 7.0 | 11.3 | 0.00 | 0.00 | 0.00 | 26 | 1001.4 |
| 20260903211005 | 76 | 269 | 6.1 | 11.3 | 0.00 | 0.00 | 0.00 | 26 | 1001.3 |
| 20260903210005 | 77 | 283 | 8.7 | 15.6 | 0.00 | 0.00 | 0.00 | 24 | 1001.3 |
| 20260903205504 | 77 | 246 | 5.2 | 15.6 | 0.00 | 0.00 | 0.00 | 24 | 1001.3 |
| 20260903205005 | 75 | 207 | 2.6 | 10.4 | 0.00 | 0.00 | 0.00 | 26 | 1001.3 |
| 20260903204505 | 75 | 204 | 4.3 | 10.4 | 0.00 | 0.00 | 0.00 | 26 | 1001.4 |
| 20260903204005 | 74 | 253 | 7.0 | 10.4 | 0.00 | 0.00 | 0.00 | 27 | 1001.5 |
| 20260903203504 | 74 | 256 | 5.2 | 8.7 | 0.00 | 0.00 | 0.00 | 27 | 1001.6 |
| 20260903203005 | 73 | 275 | 5.2 | 8.7 | 0.00 | 0.00 | 0.00 | 27 | 1001.5 |
| 20260903202005 | 74 | 282 | 7.8 | 10.4 | 0.00 | 0.00 | 0.00 | 27 | 1001.5 |
| 20260903201504 | 74 | 252 | 4.3 | 10.4 | 0.00 | 0.00 | 0.00 | 26 | 1001.5 |
| 20260903201004 | 74 | 241 | 6.1 | 14.8 | 0.00 | 0.00 | 0.00 | 26 | 1001.5 |
| 20260903200005 | 74 | 253 | 8.7 | 13.0 | 0.00 | 0.00 | 0.00 | 27 | 1001.5 |
| 20260903195504 | 74 | 271 | 3.5 | 12.2 | 0.00 | 0.00 | 0.00 | 26 | 1001.5 |
| 20260903195005 | 74 | 237 | 7.0 | 12.2 | 0.00 | 0.00 | 0.00 | 25 | 1001.6 |
| 20260903194505 | 74 | 226 | 6.1 | 10.4 | 0.00 | 0.00 | 0.00 | 25 | 1001.4 |
| 20260903194005 | 75 | 209 | 1.7 | 7.8 | 0.00 | 0.00 | 0.00 | 25 | 1001.6 |
| 20260903193505 | 75 | 208 | 0.9 | 13.0 | 0.00 | 0.00 | 0.00 | 25 | 1001.6 |
| 20260903193004 | 74 | 212 | 4.3 | 13.0 | 0.00 | 0.00 | 0.00 | 25 | 1001.6 |
| 20260903192505 | 74 | 293 | 8.7 | 13.0 | 0.00 | 0.00 | 0.00 | 26 | 1001.7 |
| 20260903192005 | 74 | 302 | 6.1 | 10.4 | 0.00 | 0.00 | 0.00 | 26 | 1001.8 |
| 20260903191005 | 73 | 272 | 6.1 | 12.2 | 0.00 | 0.00 | 0.00 | 28 | 1001.9 |
| 20260903190005 | 72 | 310 | 2.6 | 13.0 | 0.00 | 0.00 | 0.00 | 28 | 1001.9 |
| 20260903185504 | 72 | 280 | 8.7 | 13.0 | 0.00 | 0.00 | 0.00 | 28 | 1001.9 |
| 20260903185005 | 73 | 218 | 1.7 | 8.7 | 0.00 | 0.00 | 0.00 | 26 | 1002.0 |
| 20260903184005 | 73 | 165 | 4.3 | 13.9 | 0.00 | 0.00 | 0.00 | 26 | 1001.9 |
| 20260903183504 | 74 | 166 | 4.3 | 15.6 | 0.00 | 0.00 | 0.00 | 26 | 1002.1 |
| 20260903182505 | 72 | 311 | 7.0 | 13.0 | 0.00 | 0.00 | 0.00 | 28 | 1002.0 |
| 20260903182005 | 72 | 269 | 8.7 | 13.0 | 0.00 | 0.00 | 0.00 | 28 | 1002.1 |
| 20260903181004 | 71 | 283 | 7.8 | 13.0 | 0.00 | 0.00 | 0.00 | 28 | 1002.1 |
| 20260903180004 | 71 | 295 | 5.2 | 10.4 | 0.00 | 0.00 | 0.00 | 29 | 1002.2 |
| 20260903175505 | 71 | 274 | 5.2 | 11.3 | 0.00 | 0.00 | 0.00 | 28 | 1002.2 |
| 20260903175005 | 70 | 264 | 2.6 | 13.9 | 0.00 | 0.00 | 0.00 | 29 | 1002.2 |
| 20260903174504 | 70 | 277 | 5.2 | 13.9 | 0.00 | 0.00 | 0.00 | 29 | 1002.2 |
| 20260903174005 | 69 | 299 | 7.8 | 12.2 | 0.00 | 0.00 | 0.00 | 30 | 1002.2 |
| 20260903173504 | 68 | 304 | 7.0 | 12.2 | 0.00 | 0.00 | 0.00 | 30 | 1002.3 |
| 20260903173005 | 68 | 299 | 7.8 | 11.3 | 0.00 | 0.00 | 0.00 | 30 | 1002.4 |
| 20260903172504 | 68 | 302 | 8.7 | 12.2 | 0.00 | 0.00 | 0.00 | 29 | 1002.4 |
| 20260903172005 | 69 | 298 | 7.8 | 17.4 | 0.00 | 0.00 | 0.00 | 29 | 1002.5 |
| 20260903171505 | 70 | 284 | 7.0 | 17.4 | 0.00 | 0.00 | 0.00 | 29 | 1002.5 |
| 20260903171005 | 69 | 310 | 7.8 | 13.9 | 0.00 | 0.00 | 0.00 | 29 | 1002.5 |
| 20260903170004 | 69 | 267 | 7.8 | 10.4 | 0.00 | 0.00 | 0.00 | 30 | 1002.5 |
| 20260903165505 | 68 | 291 | 4.3 | 11.3 | 0.00 | 0.00 | 0.00 | 30 | 1002.5 |
| 20260903165004 | 68 | 288 | 7.8 | 13.0 | 0.00 | 0.00 | 0.00 | 30 | 1002.4 |
| 20260903164504 | 68 | 298 | 7.8 | 13.9 | 0.00 | 0.00 | 0.00 | 30 | 1002.4 |
| 20260903164005 | 68 | 294 | 7.8 | 13.9 | 0.00 | 0.00 | 0.00 | 30 | 1002.5 |
| 20260903163505 | 68 | 308 | 7.8 | 11.3 | 0.00 | 0.00 | 0.00 | 31 | 1002.5 |
| 20260903163005 | 68 | 275 | 7.0 | 13.0 | 0.00 | 0.00 | 0.00 | 30 | 1002.5 |
| 20260903162505 | 68 | 284 | 7.8 | 13.0 | 0.00 | 0.00 | 0.00 | 31 | 1002.4 |
| 20260903162005 | 68 | 289 | 6.1 | 10.4 | 0.00 | 0.00 | 0.00 | 31 | 1002.5 |
| 20260903161505 | 67 | 283 | 5.2 | 11.3 | 0.00 | 0.00 | 0.00 | 30 | 1002.5 |
| 20260903161005 | 67 | 278 | 6.1 | 13.0 | 0.00 | 0.00 | 0.00 | 31 | 1002.5 |
| 20260903160005 | 67 | 290 | 7.0 | 13.0 | 0.00 | 0.00 | 0.00 | 31 | 1002.5 |
| 20260903155505 | 67 | 292 | 7.8 | 13.0 | 0.00 | 0.00 | 0.00 | 31 | 1002.6 |
| 20260903155005 | 67 | 270 | 3.5 | 13.0 | 0.00 | 0.00 | 0.00 | 30 | 1002.6 |
| 20260903154504 | 67 | 235 | 3.5 | 13.0 | 0.00 | 0.00 | 0.00 | 31 | 1002.6 |